[[{"header":{"parameterUnit":"m.s-1","parameterCategory":1,"la1":30.2991,"la2":30.254,"lo1":-89.0895,"lo2":-89.0444,"dy":0.0017,"dx":0.0017,"nx":28,"ny":28,"refTime":"2024-04-12T09:00:00:Z","depth":0,"parameterNumber":2,"parameterNumberName":"U-component_of_WINDS"},"data":[0,0,0,0,0,0,0,0,0,0,0,0,0,0,0,0,0,0,0,0,0,0,0,0,0,0,0,0,0,0,0,0,0,0,0,0,0,0,0,0,0,0,0,0,0,0,0,0,0,0,0,0,0,0,0,0,0,0,-1.5706,-1.5705,0,-1.5634,-1.5634,-1.5633,-1.5526,-1.5524,-1.5522,-1.552,-1.5449,-1.5449,-1.5449,0,0,0,0,0,0,0,0,0,0,0,0,0,-1.5754,-1.5754,-1.5706,-1.5705,-1.5704,-1.5635,-1.5634,-1.5633,-1.5526,-1.5524,-1.5521,-1.5519,-1.5449,-1.5449,-1.5449,0,0,0,0,0,0,0,0,0,0,0,0,0,-1.5713,-1.5754,-1.5706,-1.5643,-1.5636,-1.5635,-1.5634,-1.5632,-1.5527,-1.5524,-1.5521,-1.5518,-1.5449,-1.5449,-1.5449,-1.5505,0,0,-1.5448,-1.5448,0,0,0,0,0,0,0,0,-1.5716,-1.5711,-1.5653,-1.5647,-1.564,-1.5586,-1.5624,-1.559,-1.5527,-1.5568,-1.552,-1.5517,-1.5497,-1.5493,-1.5486,-1.5501,-1.5498,-1.5448,-1.5448,-1.5448,-1.5448,0,0,0,0,0,0,0,-1.5719,-1.5714,-1.5678,-1.5652,-1.5644,-1.5619,-1.561,-1.5617,-1.555,-1.5564,-1.5556,-1.5549,-1.5493,-1.5486,-1.5483,-1.5497,-1.5448,-1.5448,-1.5448,-1.5448,-1.5558,-1.5561,0,0,0,0,0,0,-1.573,-1.5717,-1.568,-1.5676,-1.5671,-1.562,-1.561,-1.5606,-1.5549,-1.5538,-1.5552,-1.5545,-1.5488,-1.5484,-1.548,-1.5543,-1.5448,-1.5448,-1.5448,-1.5555,-1.5559,-1.5562,0,0,0,0,0,0,-1.5732,-1.5728,-1.5683,-1.5694,-1.5686,-1.5623,-1.5619,-1.5606,-1.5599,-1.554,-1.5527,-1.5557,-1.5485,-1.5481,-1.55,-1.554,-1.5448,-1.5448,-1.5551,-1.5556,-1.556,-1.567,0,0,0,0,0,0,-1.5734,-1.5729,-1.5749,-1.5695,-1.5686,-1.5703,-1.5621,-1.5607,-1.5599,-1.5589,-1.5541,-1.5531,-1.5483,-1.5501,-1.55,-1.5538,-1.5447,-1.5548,-1.5554,-1.5559,-1.5662,-1.5677,-1.569,0,0,0,0,0,-1.5736,-1.5782,-1.575,-1.5746,-1.5709,-1.5705,-1.57,-1.5643,-1.5602,-1.5622,-1.5585,-1.5532,-1.5536,-1.5504,-1.5501,-1.554,-1.5545,-1.5552,-1.5559,-1.5656,-1.5675,-1.569,0,0,0,0,0,0,-1.5841,-1.5774,-1.5737,-1.5768,-1.5743,-1.5687,-1.571,-1.5664,-1.5651,-1.5642,-1.5573,-1.5564,-1.5592,-1.5568,-1.5533,-1.5593,-1.5532,-1.5539,-1.5607,-1.5624,-1.5638,-1.5644,-1.5447,0,0,0,0,0,-1.5868,-1.587,-1.5811,-1.5843,-1.5833,-1.5774,-1.577,-1.5729,-1.5701,-1.569,-1.5653,-1.5629,-1.5625,-1.5623,-1.5615,-1.5659,-1.5648,-1.5684,-1.5699,-1.571,-1.5717,-1.5741,-1.5757,-1.5585,-1.5584,-1.5584,0,0,-1.5923,-1.5887,-1.5892,-1.5864,-1.5839,-1.5844,-1.5766,-1.5773,-1.5776,-1.5691,-1.5707,-1.568,-1.5649,-1.5681,-1.5693,-1.5661,-1.5763,-1.5719,-1.5729,-1.5729,-1.575,-1.5766,-1.5781,-1.5589,-1.5588,-1.5588,0,0,-1.6027,-1.5998,-1.6023,-1.6001,-1.5966,-1.5927,-1.5934,-1.5885,-1.5864,-1.5879,-1.5816,-1.582,-1.5813,-1.5794,-1.5783,-1.5884,-1.5836,-1.5883,-1.5957,-1.5981,-1.5994,-1.6006,-1.6044,-1.6058,-1.589,-1.5891,-1.5891,0,-1.61,-1.6103,-1.6042,-1.6054,-1.6045,-1.5968,-1.5994,-1.5976,-1.5941,-1.5937,-1.5902,-1.5894,-1.5867,-1.5895,-1.592,-1.5914,-1.592,-1.5888,-1.5997,-1.6008,-1.6018,-1.6054,-1.6068,-1.5897,-1.5896,-1.5895,-1.5895,0,-1.6196,-1.62,-1.6224,-1.6193,-1.6186,-1.6205,-1.6149,-1.615,-1.611,-1.6076,-1.6094,-1.606,-1.6045,-1.6049,-1.601,-1.6073,-1.6054,-1.601,-1.5948,-1.6042,-1.6074,-1.6087,-1.5905,-1.5903,-1.5901,-1.59,0,0,-1.6362,-1.6298,-1.6308,-1.6294,-1.6251,-1.6253,-1.6271,-1.6256,-1.626,-1.6239,-1.6253,-1.6251,-1.621,-1.6198,-1.6157,-1.6178,-1.6262,-1.613,-1.6129,-1.6157,-1.6332,-1.6366,-1.6383,-1.6231,-1.6233,-1.6235,-1.6335,0,-1.6457,-1.6481,-1.6428,-1.6466,-1.6471,-1.64,-1.6415,-1.6392,-1.6361,-1.6361,-1.6327,-1.6328,-1.6272,-1.6265,-1.6283,-1.6248,-1.6297,-1.624,-1.6245,-1.6245,-1.6255,-1.6399,-1.6435,-1.6531,-1.6347,-1.6349,-1.635,0,-1.657,-1.6556,-1.6595,-1.6553,-1.6552,-1.6567,-1.6551,-1.6552,-1.6525,-1.6501,-1.6491,-1.6443,-1.6459,-1.64,-1.6422,-1.6385,-1.6384,-1.6368,-1.637,-1.6369,-1.6304,-1.6402,-1.656,-1.6575,-1.6369,-1.6367,-1.6366,0,-1.669,-1.668,-1.6702,-1.6692,-1.6643,-1.6656,-1.6636,-1.6606,-1.6602,-1.6589,-1.6586,-1.6576,-1.657,-1.6564,-1.6515,-1.6477,-1.6545,-1.6481,-1.6527,-1.6529,-1.6544,-1.6544,-1.6705,-1.6543,-1.6543,-1.6543,-1.6542,0,-1.6802,-1.6828,-1.6755,-1.6769,-1.6798,-1.6739,-1.6769,-1.6743,-1.6718,-1.6727,-1.6665,-1.6675,-1.661,-1.6614,-1.6577,-1.6602,-1.66,-1.6583,-1.6573,-1.6589,-1.6591,-1.6587,-1.6579,-1.6546,-1.6546,-1.6545,-1.6544,0,-1.6939,-1.6891,-1.6911,-1.6863,-1.6852,-1.6876,-1.6836,-1.6848,-1.6815,-1.6827,-1.6827,-1.6774,-1.6776,-1.6727,-1.6719,-1.6694,-1.6737,-1.6714,-1.6746,-1.6739,-1.6788,-1.6785,-1.6952,-1.6972,-1.6797,-1.6799,-1.6801,0,-1.7013,-1.7032,-1.6988,-1.6989,-1.6973,-1.6976,-1.6972,-1.6915,-1.6914,-1.6887,-1.6903,-1.6899,-1.6893,-1.69,-1.6862,-1.6856,-1.6834,-1.6893,-1.6832,-1.6849,-1.6836,-1.6836,-1.6839,-1.6906,-1.6908,-1.691,-1.6911,0,-1.7152,-1.7128,-1.7124,-1.7113,-1.711,-1.7099,-1.7083,-1.7089,-1.7027,-1.7029,-1.703,-1.7026,-1.7018,-1.7016,-1.7004,-1.6985,-1.6939,-1.6931,-1.6941,-1.6958,-1.6976,-1.6969,-1.6781,-1.6927,-1.6925,-1.6924,-1.6923,-1.6923,-1.726,-1.7275,-1.7247,-1.7246,-1.7229,-1.7217,-1.7226,-1.7195,-1.7194,-1.7183,-1.715,-1.7158,-1.7134,-1.7112,-1.7098,-1.7105,-1.7075,-1.709,-1.7094,-1.7099,-1.7109,-1.6975,-1.7102,-1.7102,-1.7101,-1.7101,-1.71,0,-1.7397,-1.7376,-1.7375,-1.7356,-1.7357,-1.7313,-1.7295,-1.7298,-1.7305,-1.7286,-1.7282,-1.7285,-1.7284,-1.7247,-1.7242,-1.7255,-1.7234,-1.7256,-1.7254,-1.7251,-1.7135,-1.7127,-1.7273,-1.7273,-1.7273,-1.7273,-1.7273,-1.7273,-1.7468,-1.7491,-1.7465,-1.748,-1.7459,-1.7465,-1.7459,-1.7449,-1.7434,-1.744,-1.7439,-1.7415,-1.739,-1.7383,-1.7381,-1.737,-1.7372,-1.7401,-1.7384,-1.7276,-1.7259,-1.7243,-1.7235,-1.7402,-1.7402,-1.75,-1.7501,-1.7502]},{"header":{"parameterUnit":"m.s-1","parameterCategory":1,"la1":30.2991,"la2":30.254,"lo1":-89.0895,"lo2":-89.0444,"dy":0.0017,"dx":0.0017,"nx":28,"ny":28,"refTime":"2024-04-12T09:00:00:Z","depth":0,"parameterNumber":3,"parameterNumberName":"V-component_of_WINDS"},"data":[0,0,0,0,0,0,0,0,0,0,0,0,0,0,0,0,0,0,0,0,0,0,0,0,0,0,0,0,0,0,0,0,0,0,0,0,0,0,0,0,0,0,0,0,0,0,0,0,0,0,0,0,0,0,0,0,0,0,2.0806,2.0806,0,2.0805,2.0805,2.0805,2.0786,2.0786,2.0785,2.0785,2.0783,2.0783,2.0784,0,0,0,0,0,0,0,0,0,0,0,0,0,2.0794,2.0794,2.0806,2.0806,2.0806,2.0805,2.0805,2.0805,2.0786,2.0786,2.0785,2.0784,2.0783,2.0783,2.0784,0,0,0,0,0,0,0,0,0,0,0,0,0,2.0796,2.0794,2.0806,2.0797,2.0796,2.0805,2.0805,2.0805,2.0786,2.0786,2.0785,2.0784,2.0782,2.0783,2.0784,2.0801,0,0,2.0785,2.0786,0,0,0,0,0,0,0,0,2.0796,2.0797,2.0798,2.0797,2.0797,2.0795,2.0799,2.0803,2.0786,2.079,2.0785,2.0784,2.0787,2.0787,2.0789,2.0801,2.0801,2.0785,2.0786,2.0786,2.0786,0,0,0,0,0,0,0,2.0796,2.0797,2.0806,2.0798,2.0797,2.0793,2.0792,2.08,2.0793,2.079,2.0788,2.0788,2.0787,2.0788,2.0788,2.0801,2.0785,2.0786,2.0786,2.0786,2.0828,2.0828,0,0,0,0,0,0,2.0797,2.0797,2.0806,2.0806,2.0795,2.0794,2.0793,2.0796,2.0792,2.0791,2.0789,2.0787,2.0788,2.0788,2.0788,2.0808,2.0786,2.0787,2.0787,2.0827,2.0828,2.0829,0,0,0,0,0,0,2.0797,2.0798,2.0806,2.0801,2.0801,2.0795,2.0798,2.0796,2.0798,2.0792,2.079,2.0792,2.0787,2.0788,2.0798,2.0808,2.0787,2.0787,2.0826,2.0827,2.0828,2.0848,0,0,0,0,0,0,2.0797,2.0798,2.0804,2.0801,2.0802,2.0815,2.0799,2.0797,2.0799,2.0797,2.0794,2.0793,2.0786,2.0797,2.0799,2.0808,2.0788,2.0825,2.0827,2.0828,2.0846,2.0849,2.0852,0,0,0,0,0,2.0796,2.081,2.0805,2.0806,2.081,2.0816,2.0816,2.0809,2.08,2.0806,2.0803,2.0793,2.0807,2.0799,2.08,2.081,2.0824,2.0826,2.0828,2.0845,2.0849,2.0852,0,0,0,0,0,0,2.0814,2.0809,2.0804,2.0817,2.0817,2.0813,2.082,2.0813,2.0816,2.0814,2.0804,2.0804,2.0815,2.0814,2.0805,2.0827,2.0814,2.0816,2.0827,2.083,2.0833,2.0833,2.0788,0,0,0,0,0,2.082,2.0825,2.0821,2.0833,2.0833,2.0827,2.083,2.0824,2.0824,2.0823,2.0821,2.0821,2.0825,2.0828,2.0832,2.0847,2.0846,2.0854,2.0857,2.086,2.0861,2.0868,2.0872,2.0834,2.0834,2.0834,0,0,2.0831,2.0829,2.0833,2.0837,2.0836,2.0842,2.0827,2.0834,2.0838,2.0824,2.0834,2.0832,2.0832,2.0844,2.085,2.0843,2.0872,2.0862,2.0864,2.0864,2.0871,2.0874,2.0877,2.0835,2.0835,2.0835,0,0,2.0854,2.0854,2.0863,2.0864,2.0863,2.0859,2.0862,2.0859,2.0857,2.0867,2.0857,2.0862,2.087,2.087,2.0871,2.0896,2.0887,2.0898,2.0912,2.092,2.0923,2.0925,2.0933,2.0936,2.0899,2.0899,2.0899,0,2.0868,2.0876,2.0869,2.0877,2.0879,2.0867,2.0877,2.0878,2.0878,2.088,2.0873,2.0883,2.0882,2.0894,2.09,2.0902,2.0904,2.0897,2.0923,2.0925,2.0928,2.0935,2.0938,2.09,2.09,2.09,2.09,0,2.0893,2.0899,2.0907,2.0909,2.0912,2.092,2.0914,2.0918,2.0913,2.091,2.092,2.0919,2.0922,2.0925,2.0919,2.0936,2.0932,2.0925,2.0911,2.0932,2.0939,2.0942,2.0902,2.0902,2.0901,2.0901,0,0,2.0925,2.0924,2.0927,2.0927,2.0927,2.0931,2.094,2.0943,2.0946,2.0948,2.0955,2.0962,2.0955,2.0956,2.0951,2.0958,2.0977,2.0949,2.0949,2.0953,2.0995,2.0999,2.1003,2.0972,2.0973,2.0973,2.0994,0,2.0947,2.0961,2.0955,2.0969,2.0975,2.0965,2.0973,2.0973,2.0971,2.0976,2.0973,2.0978,2.0969,2.097,2.0976,2.0973,2.0985,2.0972,2.0977,2.0977,2.0975,2.1006,2.1011,2.1031,2.0997,2.0997,2.0998,0,2.0973,2.0976,2.0991,2.099,2.0992,2.0998,2.1001,2.1006,2.1007,2.1005,2.1007,2.1,2.1009,2.0997,2.1008,2.1,2.1002,2.1001,2.1002,2.1,2.0987,2.1004,2.1037,2.104,2.1002,2.1002,2.1001,0,2.0993,2.1001,2.1011,2.1012,2.1011,2.1016,2.1016,2.1016,2.1019,2.1022,2.1023,2.1027,2.1029,2.1032,2.1027,2.1019,2.1039,2.1027,2.1036,2.1036,2.1039,2.1039,2.1071,2.1044,2.1044,2.1043,2.1043,0,2.1016,2.1025,2.102,2.1026,2.1036,2.103,2.1041,2.104,2.104,2.1046,2.1038,2.1044,2.1038,2.1042,2.1039,2.1048,2.1049,2.1047,2.1046,2.1047,2.1047,2.1047,2.1045,2.1044,2.1044,2.1044,2.1044,0,2.104,2.1037,2.1046,2.1046,2.1046,2.1053,2.1052,2.1058,2.1056,2.1063,2.1064,2.1061,2.1066,2.1062,2.1068,2.1065,2.1077,2.1075,2.1077,2.1075,2.1084,2.1083,2.1117,2.112,2.1092,2.1092,2.1092,0,2.1054,2.1061,2.1061,2.1064,2.1065,2.107,2.1073,2.1068,2.1071,2.1074,2.1079,2.1084,2.1087,2.1096,2.1094,2.1098,2.1095,2.1106,2.1095,2.1096,2.1093,2.1092,2.1092,2.1108,2.1108,2.1108,2.1109,0,2.1079,2.1077,2.1081,2.1085,2.1089,2.1092,2.1094,2.1098,2.1093,2.1097,2.1102,2.1105,2.1111,2.1116,2.1119,2.1119,2.1113,2.1113,2.1115,2.1115,2.1115,2.1114,2.1081,2.1111,2.1111,2.1111,2.1111,2.1111,2.1097,2.1102,2.1104,2.1109,2.111,2.1113,2.1118,2.1117,2.1122,2.1126,2.1123,2.113,2.1131,2.1135,2.1136,2.1141,2.1136,2.114,2.114,2.1141,2.1141,2.1116,2.1142,2.1142,2.1142,2.1142,2.1142,0,2.112,2.1121,2.1126,2.113,2.1134,2.1129,2.1131,2.1135,2.1141,2.1143,2.1147,2.1153,2.1158,2.1157,2.1162,2.1166,2.1163,2.1167,2.1166,2.1166,2.1146,2.1143,2.1169,2.1169,2.1169,2.1169,2.1169,2.1169,2.1133,2.1142,2.1141,2.1151,2.1151,2.1158,2.116,2.1162,2.1163,2.1171,2.1175,2.1175,2.1176,2.118,2.1184,2.1184,2.1185,2.119,2.1188,2.117,2.1167,2.1164,2.1161,2.1191,2.1191,2.1207,2.1207,2.1207]}]]